[[{"header":{"parameterUnit":"m.s-1","parameterCategory":2,"la1":30.2991,"la2":30.254,"lo1":-89.0895,"lo2":-89.0444,"dy":0.0017,"dx":0.0017,"nx":28,"ny":28,"refTime":"2026-02-04T09:00:00:Z","depth":"0","parameterNumber":2,"parameterNumberName":"U-component_of_CURRENTS"},"data":[0,0,0,0,0,0,0,0,0,0,0,0,0,0,0,0,0,0,0,0,0,0,0,0,0,0,0,0,0,0,0,0,0,0,0,0,0,0,0,0,0,0,0,0,0,0,0,0,0,0,0,0,0,0,0,0,0,0,-0.0748,-0.0749,0,-0.0837,-0.0838,-0.0839,-0.0856,-0.0856,-0.0855,-0.0855,-0.0886,-0.0887,-0.0888,0,0,0,0,0,0,0,0,0,0,0,0,0,-0.0599,-0.0601,-0.0748,-0.0749,-0.0751,-0.0837,-0.0838,-0.0839,-0.0856,-0.0856,-0.0855,-0.0855,-0.0886,-0.0887,-0.0888,0,0,0,0,0,0,0,0,0,0,0,0,0,-0.067,-0.0602,-0.0748,-0.0772,-0.0776,-0.0837,-0.0838,-0.0839,-0.0856,-0.0856,-0.0855,-0.0855,-0.0885,-0.0887,-0.0889,-0.091,0,0,-0.0894,-0.0895,0,0,0,0,0,0,0,0,-0.0666,-0.0675,-0.0767,-0.0771,-0.0775,-0.0838,-0.0797,-0.0861,-0.0856,-0.0822,-0.0855,-0.0854,-0.0868,-0.0871,-0.0884,-0.0912,-0.0913,-0.0894,-0.0895,-0.0896,-0.0896,0,0,0,0,0,0,0,-0.0661,-0.0671,-0.0779,-0.0769,-0.0774,-0.0782,-0.0791,-0.0809,-0.0842,-0.0825,-0.0827,-0.0843,-0.0868,-0.0882,-0.0885,-0.0913,-0.0894,-0.0896,-0.0897,-0.0897,-0.0914,-0.0914,0,0,0,0,0,0,-0.0658,-0.0667,-0.0777,-0.0782,-0.0722,-0.0785,-0.0795,-0.0815,-0.0844,-0.0849,-0.0844,-0.0844,-0.088,-0.0883,-0.0886,-0.089,-0.0896,-0.0897,-0.0898,-0.0915,-0.0914,-0.0913,0,0,0,0,0,0,-0.0655,-0.0667,-0.0773,-0.0729,-0.0744,-0.0789,-0.0811,-0.0818,-0.0829,-0.0859,-0.0863,-0.0848,-0.0879,-0.0883,-0.0901,-0.0892,-0.0898,-0.09,-0.0915,-0.0915,-0.0914,-0.0912,0,0,0,0,0,0,-0.065,-0.0665,-0.0661,-0.0729,-0.0746,-0.0809,-0.0812,-0.082,-0.0842,-0.0843,-0.0865,-0.0867,-0.0879,-0.0898,-0.0903,-0.0894,-0.0901,-0.0916,-0.0915,-0.0914,-0.0913,-0.0911,-0.091,0,0,0,0,0,-0.0644,-0.0655,-0.066,-0.0673,-0.0745,-0.081,-0.0819,-0.0846,-0.0842,-0.0852,-0.0864,-0.0866,-0.0893,-0.09,-0.0905,-0.0897,-0.0917,-0.0915,-0.0914,-0.0913,-0.0911,-0.091,0,0,0,0,0,0,-0.0599,-0.0661,-0.0667,-0.0697,-0.0746,-0.0814,-0.0823,-0.0844,-0.0863,-0.0858,-0.0874,-0.0878,-0.089,-0.0891,-0.0898,-0.0895,-0.0899,-0.0899,-0.0897,-0.0895,-0.0894,-0.0905,-0.0903,0,0,0,0,0,-0.0584,-0.0599,-0.0669,-0.0689,-0.0712,-0.0763,-0.0785,-0.0814,-0.085,-0.0857,-0.0877,-0.0883,-0.089,-0.0891,-0.0906,-0.091,-0.0936,-0.0901,-0.09,-0.0899,-0.0909,-0.0944,-0.0948,-0.0909,-0.0909,-0.0909,0,0,-0.0571,-0.0607,-0.0614,-0.0678,-0.0713,-0.0756,-0.0774,-0.0819,-0.0852,-0.0857,-0.089,-0.0891,-0.0893,-0.0901,-0.0903,-0.0898,-0.0922,-0.0897,-0.0896,-0.0908,-0.0943,-0.0947,-0.0951,-0.0908,-0.0908,-0.0908,0,0,-0.0566,-0.0587,-0.0599,-0.0643,-0.0703,-0.0743,-0.0756,-0.0825,-0.0847,-0.0883,-0.0886,-0.0887,-0.0903,-0.0906,-0.0905,-0.0904,-0.0922,-0.0888,-0.0883,-0.0917,-0.0921,-0.0925,-0.0965,-0.0973,-0.0876,-0.0876,-0.0876,0,-0.0546,-0.0571,-0.0614,-0.065,-0.0678,-0.0737,-0.0767,-0.0813,-0.0878,-0.0894,-0.089,-0.0911,-0.091,-0.0916,-0.0902,-0.0903,-0.0924,-0.0892,-0.0917,-0.0922,-0.0926,-0.0966,-0.0975,-0.0876,-0.0876,-0.0876,-0.0876,0,-0.0552,-0.0576,-0.0594,-0.0648,-0.069,-0.0726,-0.0803,-0.0844,-0.0868,-0.0903,-0.0925,-0.093,-0.0936,-0.0922,-0.0909,-0.0921,-0.0928,-0.0923,-0.0928,-0.093,-0.0972,-0.0981,-0.0876,-0.0876,-0.0876,-0.0876,0,0,-0.0516,-0.0577,-0.0587,-0.0598,-0.0686,-0.0724,-0.0792,-0.0856,-0.0893,-0.0931,-0.0963,-0.0954,-0.095,-0.0947,-0.0931,-0.0943,-0.0979,-0.0931,-0.0933,-0.0982,-0.1058,-0.0974,-0.0976,-0.0975,-0.0976,-0.0977,-0.1077,0,-0.0503,-0.0536,-0.0584,-0.0625,-0.0646,-0.0725,-0.0784,-0.0855,-0.0906,-0.096,-0.0971,-0.099,-0.0962,-0.095,-0.0962,-0.0978,-0.1002,-0.0953,-0.1039,-0.1043,-0.0977,-0.0983,-0.088,-0.0952,-0.1086,-0.1088,-0.1089,0,-0.0497,-0.0515,-0.0533,-0.0598,-0.0617,-0.0656,-0.0746,-0.0808,-0.091,-0.0948,-0.098,-0.1003,-0.1022,-0.0999,-0.1052,-0.1019,-0.1038,-0.1054,-0.1059,-0.0989,-0.0974,-0.0969,-0.0963,-0.0963,-0.1103,-0.1102,-0.1101,0,-0.043,-0.0488,-0.0482,-0.0504,-0.0591,-0.0619,-0.0676,-0.0789,-0.0841,-0.0938,-0.0975,-0.1022,-0.1043,-0.1077,-0.11,-0.1079,-0.1171,-0.1154,-0.111,-0.1106,-0.104,-0.1026,-0.1052,-0.1209,-0.1209,-0.1209,-0.1209,0,-0.04,-0.0411,-0.0442,-0.0445,-0.047,-0.0553,-0.0602,-0.0692,-0.0794,-0.0846,-0.0942,-0.0992,-0.1061,-0.1119,-0.1133,-0.1145,-0.1204,-0.1119,-0.1123,-0.1033,-0.1018,-0.1031,-0.1047,-0.1213,-0.1212,-0.1211,-0.1211,0,-0.0366,-0.037,-0.0375,-0.0422,-0.0437,-0.0462,-0.0557,-0.0596,-0.0711,-0.079,-0.0817,-0.0974,-0.1054,-0.1124,-0.1201,-0.1179,-0.1182,-0.1202,-0.109,-0.1077,-0.0986,-0.1005,-0.1065,-0.1038,-0.1163,-0.1162,-0.116,0,-0.0356,-0.0343,-0.0349,-0.0339,-0.036,-0.0398,-0.0428,-0.0542,-0.0587,-0.0769,-0.0795,-0.0929,-0.1011,-0.1115,-0.1103,-0.1135,-0.1161,-0.1058,-0.0984,-0.0969,-0.0996,-0.1027,-0.1004,-0.0914,-0.0911,-0.0908,-0.0906,0,-0.0344,-0.0329,-0.0318,-0.0293,-0.029,-0.0312,-0.036,-0.0377,-0.051,-0.0574,-0.0689,-0.0781,-0.0923,-0.0905,-0.0961,-0.0986,-0.1004,-0.1,-0.1024,-0.0828,-0.083,-0.0809,-0.0878,-0.0883,-0.0885,-0.0887,-0.0888,-0.0889,-0.033,-0.0302,-0.0255,-0.0235,-0.0239,-0.0226,-0.0208,-0.0236,-0.0268,-0.0315,-0.049,-0.0499,-0.0606,-0.0662,-0.0775,-0.0776,-0.0838,-0.0738,-0.0776,-0.0822,-0.074,-0.0746,-0.0717,-0.0718,-0.0719,-0.072,-0.0721,0,-0.0306,-0.0243,-0.0208,-0.0158,-0.0148,-0.0171,-0.0161,-0.0113,-0.0077,-0.0063,-0.0112,-0.0051,-0.0152,-0.031,-0.0401,-0.0502,-0.057,-0.0576,-0.0611,-0.0606,-0.064,-0.0567,-0.0454,-0.0454,-0.0454,-0.0454,-0.0454,-0.0454,-0.0272,-0.0196,-0.0148,-0.0071,-0.0057,-0.0015,0.0017,0.0102,0.0163,0.031,0.0436,0.0423,0.0306,-0.0032,-0.0306,-0.0418,-0.0486,-0.0501,-0.0575,-0.0601,-0.062,-0.0638,-0.0572,-0.0462,-0.0463,-0.0486,-0.0486,-0.0486]},{"header":{"parameterUnit":"m.s-1","parameterCategory":2,"la1":30.2991,"la2":30.254,"lo1":-89.0895,"lo2":-89.0444,"dy":0.0017,"dx":0.0017,"nx":28,"ny":28,"refTime":"2026-02-04T09:00:00:Z","depth":"0","parameterNumber":3,"parameterNumberName":"V-component_of_CURRENTS"},"data":[0,0,0,0,0,0,0,0,0,0,0,0,0,0,0,0,0,0,0,0,0,0,0,0,0,0,0,0,0,0,0,0,0,0,0,0,0,0,0,0,0,0,0,0,0,0,0,0,0,0,0,0,0,0,0,0,0,0,0.0126,0.0127,0,0.0191,0.0192,0.0192,0.0266,0.0267,0.0268,0.0269,0.0299,0.0299,0.0299,0,0,0,0,0,0,0,0,0,0,0,0,0,0.019,0.0187,0.0126,0.0127,0.0127,0.0191,0.0192,0.0193,0.0266,0.0267,0.0268,0.027,0.0299,0.0299,0.0299,0,0,0,0,0,0,0,0,0,0,0,0,0,0.02,0.0187,0.0126,0.017,0.0175,0.019,0.0192,0.0193,0.0266,0.0267,0.0269,0.027,0.0299,0.0299,0.0299,0.0269,0,0,0.0298,0.0298,0,0,0,0,0,0,0,0,0.0199,0.0198,0.0163,0.0167,0.0172,0.0221,0.0225,0.0216,0.0266,0.0233,0.0269,0.0271,0.0267,0.027,0.0282,0.0271,0.0272,0.0298,0.0298,0.0298,0.0298,0,0,0,0,0,0,0,0.0198,0.0196,0.0153,0.0164,0.0169,0.023,0.0232,0.0225,0.0242,0.0236,0.0241,0.0245,0.027,0.0282,0.0283,0.0272,0.0298,0.0298,0.0298,0.0298,0.0266,0.0265,0,0,0,0,0,0,0.0178,0.0194,0.0151,0.0155,0.0188,0.0226,0.0229,0.0205,0.0243,0.025,0.0244,0.0248,0.0281,0.0283,0.0284,0.0243,0.0298,0.0298,0.0298,0.0267,0.0266,0.0265,0,0,0,0,0,0,0.0179,0.0172,0.0148,0.0177,0.0178,0.0223,0.0196,0.0205,0.0217,0.0249,0.0256,0.0246,0.0282,0.0284,0.0286,0.0245,0.0298,0.0298,0.0268,0.0266,0.0265,0.0166,0,0,0,0,0,0,0.018,0.0172,0.0149,0.0174,0.0176,0.0134,0.0195,0.0206,0.0217,0.0223,0.0252,0.0257,0.0284,0.0286,0.0286,0.0246,0.0298,0.0269,0.0267,0.0266,0.017,0.0162,0.0154,0,0,0,0,0,0.0181,0.0135,0.0147,0.0143,0.0141,0.0132,0.0137,0.0178,0.0215,0.0199,0.0242,0.0256,0.0277,0.0285,0.0285,0.0244,0.0269,0.0267,0.0266,0.0174,0.0163,0.0155,0,0,0,0,0,0,0.0157,0.0139,0.0153,0.0105,0.011,0.0144,0.0133,0.0167,0.0189,0.0202,0.0245,0.0251,0.0243,0.0258,0.0266,0.0235,0.0275,0.0273,0.0205,0.0195,0.0187,0.016,0.0298,0,0,0,0,0,0.0137,0.0101,0.0101,0.0071,0.0058,0.0096,0.0101,0.0127,0.0152,0.0165,0.0192,0.022,0.0233,0.0227,0.0246,0.0214,0.023,0.019,0.0182,0.0175,0.0155,0.0144,0.0132,0.0259,0.0259,0.0259,0,0,0.0134,0.0112,0.0101,0.0064,0.0072,0.0048,0.0102,0.0094,0.0086,0.016,0.0155,0.0194,0.0225,0.0208,0.0202,0.0212,0.0153,0.0173,0.0166,0.015,0.014,0.0128,0.0116,0.0258,0.0258,0.0258,0,0,0.0097,0.0069,0.0025,0.0014,0.0003,0.0013,0.0004,0.0023,0.0032,0.0035,0.0093,0.0106,0.0123,0.0133,0.0142,0.0093,0.0121,0.0101,0.0018,0.0007,-0.0004,-0.0014,0.0008,0.0001,0.0083,0.0082,0.0082,0,0.009,0.0027,0.0017,-0.0029,-0.0038,-0.0012,-0.0046,-0.0046,-0.0016,-0.0022,0.0019,0.0055,0.0083,0.0054,0.0049,0.0069,0.0084,0.005,-0.0006,-0.0015,-0.0024,0.0001,-0.0006,0.0077,0.0078,0.0079,0.0079,0,0.0022,-0.0022,-0.0055,-0.0107,-0.0116,-0.0149,-0.0151,-0.0167,-0.0142,-0.0124,-0.0134,-0.0085,-0.0066,-0.0058,-0.0018,-0.0069,-0.003,-0.0005,0.0012,-0.0043,-0.0013,-0.0018,0.007,0.0072,0.0074,0.0075,0,0,-0.0014,-0.0091,-0.0102,-0.0133,-0.0163,-0.0182,-0.0223,-0.0259,-0.0286,-0.0262,-0.0291,-0.0262,-0.0223,-0.0211,-0.0167,-0.0183,-0.0212,-0.0128,-0.0126,-0.0119,-0.0215,-0.008,-0.0072,-0.0199,-0.0201,-0.0202,-0.0164,0,-0.0069,-0.0176,-0.0184,-0.0249,-0.0304,-0.0295,-0.0335,-0.035,-0.0351,-0.0378,-0.0356,-0.0351,-0.0289,-0.0273,-0.0285,-0.0226,-0.0233,-0.0223,-0.0153,-0.015,-0.0035,-0.0077,0.0014,0.0065,-0.0169,-0.017,-0.017,0,-0.0134,-0.0205,-0.0295,-0.0347,-0.0367,-0.039,-0.0448,-0.0473,-0.0509,-0.0504,-0.0508,-0.0469,-0.0481,-0.0412,-0.0381,-0.0375,-0.0309,-0.0264,-0.026,-0.011,-0.0026,0.008,0.0065,0.0169,-0.0178,-0.0177,-0.0176,0,-0.0179,-0.027,-0.035,-0.037,-0.0433,-0.046,-0.0483,-0.0516,-0.0548,-0.0581,-0.0594,-0.0591,-0.058,-0.0532,-0.0417,-0.0406,-0.0367,-0.0337,-0.0157,-0.0145,-0.0041,-0.0016,0.004,-0.0324,-0.0324,-0.0324,-0.0324,0,-0.0245,-0.0293,-0.0383,-0.0427,-0.0503,-0.0512,-0.0578,-0.0599,-0.0638,-0.0678,-0.0657,-0.0686,-0.061,-0.0564,-0.0467,-0.0318,-0.0402,-0.018,-0.0137,-0.0066,-0.0046,0.0074,0.0093,-0.0322,-0.0323,-0.0323,-0.0323,0,-0.0254,-0.0323,-0.0413,-0.0508,-0.0527,-0.0577,-0.0624,-0.067,-0.07,-0.0752,-0.0762,-0.0765,-0.0696,-0.0586,-0.049,-0.0357,-0.0152,-0.0163,-0.0061,-0.0006,0.0283,0.0293,0.0367,0.0449,0.0032,0.0035,0.0038,0,-0.0268,-0.033,-0.0461,-0.0506,-0.054,-0.061,-0.0651,-0.0697,-0.0735,-0.0798,-0.0825,-0.0787,-0.0759,-0.0557,-0.0311,-0.0098,-0.0039,0.0136,0.0176,0.0306,0.0346,0.0331,0.0392,0.0276,0.028,0.0284,0.0287,0,-0.0286,-0.034,-0.0414,-0.0524,-0.0585,-0.0645,-0.0703,-0.0748,-0.0799,-0.085,-0.0903,-0.0897,-0.0683,-0.04,-0.0069,0.0059,0.0238,0.0224,0.0306,0.0499,0.0532,0.0631,0.026,0.032,0.0317,0.0315,0.0313,0.0311,-0.0281,-0.0331,-0.0442,-0.0527,-0.0586,-0.0642,-0.0679,-0.0743,-0.0807,-0.0846,-0.091,-0.0865,-0.0411,0.0057,0.0153,0.0585,0.0499,0.0726,0.0715,0.0679,0.0792,0.0525,0.0673,0.0672,0.0671,0.067,0.0669,0,-0.0289,-0.0339,-0.0424,-0.0528,-0.0569,-0.0611,-0.0678,-0.0696,-0.075,-0.0793,-0.0831,-0.0464,-0.0006,0.0366,0.0993,0.1104,0.1061,0.114,0.1108,0.1139,0.0867,0.0918,0.1189,0.1189,0.1189,0.1189,0.1189,0.1189,-0.029,-0.0373,-0.0425,-0.0493,-0.0532,-0.0566,-0.0592,-0.0615,-0.0629,-0.0572,-0.0468,-0.0403,0.0299,0.1016,0.1455,0.1454,0.1497,0.1473,0.1485,0.1276,0.1235,0.1196,0.1249,0.1586,0.1586,0.1781,0.1783,0.1784]}],[{"header":{"parameterUnit":"m.s-1","parameterCategory":2,"la1":30.2991,"la2":30.254,"lo1":-89.0895,"lo2":-89.0444,"dy":0.0017,"dx":0.0017,"nx":28,"ny":28,"refTime":"2026-02-04T09:00:00:Z","depth":"2","parameterNumber":2,"parameterNumberName":"U-component_of_CURRENTS"},"data":[0,0,0,0,0,0,0,0,0,0,0,0,0,0,0,0,0,0,0,0,0,0,0,0,0,0,0,0,0,0,0,0,0,0,0,0,0,0,0,0,0,0,0,0,0,0,0,0,0,0,0,0,0,0,0,0,0,0,-0.2428,-0.243,0,-0.2504,-0.2504,-0.2504,-0.2725,-0.273,-0.2736,-0.2742,-0.2881,-0.2879,-0.2878,0,0,0,0,0,0,0,0,0,0,0,0,0,-0.2317,-0.2318,-0.2428,-0.243,-0.2432,-0.2504,-0.2504,-0.2504,-0.2724,-0.2731,-0.2738,-0.2744,-0.2882,-0.288,-0.2878,0,0,0,0,0,0,0,0,0,0,0,0,0,-0.2366,-0.2318,-0.2428,-0.2559,-0.2572,-0.2504,-0.2504,-0.2504,-0.2722,-0.2731,-0.274,-0.2748,-0.2882,-0.288,-0.2877,-0.2686,0,0,-0.2869,-0.2868,0,0,0,0,0,0,0,0,-0.2363,-0.2368,-0.2538,-0.255,-0.2565,-0.2624,-0.2517,-0.2572,-0.272,-0.2653,-0.2742,-0.2752,-0.2802,-0.2806,-0.2784,-0.2692,-0.2698,-0.2869,-0.2867,-0.2866,-0.2866,0,0,0,0,0,0,0,-0.2359,-0.2365,-0.2447,-0.2539,-0.2556,-0.2561,-0.2578,-0.2526,-0.2669,-0.266,-0.2679,-0.2702,-0.281,-0.2786,-0.2789,-0.27,-0.2869,-0.2867,-0.2865,-0.2864,-0.2913,-0.2916,0,0,0,0,0,0,-0.2371,-0.2362,-0.2445,-0.2451,-0.2496,-0.2557,-0.2576,-0.2587,-0.267,-0.2693,-0.2695,-0.2712,-0.2786,-0.2792,-0.2795,-0.2891,-0.2866,-0.2864,-0.2862,-0.291,-0.2914,-0.2917,0,0,0,0,0,0,-0.2368,-0.2376,-0.2442,-0.2418,-0.2429,-0.2552,-0.2561,-0.2584,-0.2647,-0.2698,-0.2723,-0.2748,-0.2793,-0.2799,-0.2851,-0.2887,-0.2863,-0.286,-0.2907,-0.2911,-0.2915,-0.2879,0,0,0,0,0,0,-0.2363,-0.2374,-0.2387,-0.2418,-0.2431,-0.2487,-0.2555,-0.2579,-0.2649,-0.2675,-0.2747,-0.2766,-0.28,-0.2855,-0.2848,-0.2883,-0.2858,-0.2903,-0.2909,-0.2914,-0.2876,-0.2881,-0.2885,0,0,0,0,0,-0.2359,-0.2385,-0.2386,-0.2398,-0.2444,-0.2489,-0.2496,-0.2604,-0.2643,-0.2686,-0.2743,-0.2768,-0.2889,-0.2852,-0.2844,-0.288,-0.2901,-0.2907,-0.2914,-0.2874,-0.288,-0.2885,0,0,0,0,0,0,-0.2369,-0.241,-0.2414,-0.2456,-0.2495,-0.2535,-0.2584,-0.2609,-0.2669,-0.2716,-0.2748,-0.2768,-0.2849,-0.2857,-0.2817,-0.2925,-0.2917,-0.2922,-0.2891,-0.2896,-0.29,-0.2861,-0.2856,0,0,0,0,0,-0.2355,-0.2381,-0.2415,-0.245,-0.2474,-0.2508,-0.2538,-0.2603,-0.2656,-0.2696,-0.275,-0.281,-0.284,-0.287,-0.2913,-0.2902,-0.2851,-0.2947,-0.2951,-0.2954,-0.2927,-0.2842,-0.2832,-0.2938,-0.2938,-0.2938,0,0,-0.2369,-0.2394,-0.2412,-0.2451,-0.2485,-0.2518,-0.2552,-0.2629,-0.2663,-0.2687,-0.2777,-0.282,-0.2848,-0.29,-0.2936,-0.2923,-0.2909,-0.2963,-0.2964,-0.2934,-0.2847,-0.2835,-0.2825,-0.2942,-0.2942,-0.2941,0,0,-0.2427,-0.2429,-0.2479,-0.2497,-0.2563,-0.2568,-0.2598,-0.2663,-0.2716,-0.2755,-0.2812,-0.2858,-0.2914,-0.2934,-0.294,-0.2972,-0.2942,-0.3041,-0.3004,-0.2923,-0.291,-0.2899,-0.284,-0.2824,-0.3032,-0.3032,-0.3032,0,-0.2438,-0.248,-0.2503,-0.2548,-0.2571,-0.2594,-0.2642,-0.2655,-0.2739,-0.2749,-0.2823,-0.2876,-0.2913,-0.29,-0.2955,-0.2972,-0.2936,-0.2966,-0.2917,-0.2905,-0.2893,-0.2836,-0.2818,-0.3031,-0.3031,-0.3031,-0.3031,0,-0.2494,-0.2548,-0.2583,-0.2621,-0.2657,-0.2695,-0.2721,-0.2754,-0.2798,-0.2809,-0.2858,-0.2885,-0.2911,-0.2952,-0.2956,-0.2919,-0.2925,-0.2929,-0.2876,-0.2878,-0.2822,-0.2803,-0.303,-0.303,-0.303,-0.303,0,0,-0.2456,-0.2589,-0.2592,-0.2644,-0.2687,-0.2722,-0.2751,-0.276,-0.2761,-0.2828,-0.2823,-0.2869,-0.2879,-0.2887,-0.2904,-0.2842,-0.2745,-0.2859,-0.2855,-0.2752,-0.2579,-0.2488,-0.2459,-0.2736,-0.2732,-0.2729,-0.2576,0,-0.2479,-0.2559,-0.2624,-0.271,-0.2759,-0.2778,-0.2794,-0.2813,-0.2822,-0.2822,-0.2805,-0.2826,-0.2851,-0.2868,-0.2804,-0.2777,-0.2694,-0.2787,-0.2635,-0.263,-0.2506,-0.2433,-0.2291,-0.2133,-0.2558,-0.2554,-0.2552,0,-0.2505,-0.2543,-0.2626,-0.2753,-0.2774,-0.2826,-0.2823,-0.2846,-0.2813,-0.282,-0.2792,-0.2793,-0.2728,-0.2752,-0.2617,-0.2682,-0.2618,-0.2579,-0.2572,-0.2473,-0.2501,-0.2202,-0.2083,-0.2521,-0.2523,-0.2525,-0.2528,0,-0.2437,-0.257,-0.2626,-0.2649,-0.2759,-0.2811,-0.2852,-0.2851,-0.2844,-0.2803,-0.2776,-0.2719,-0.2679,-0.2591,-0.2518,-0.2565,-0.2353,-0.2402,-0.2243,-0.2238,-0.2076,-0.2061,-0.225,-0.225,-0.225,-0.2251,-0.2251,0,-0.2419,-0.2481,-0.2612,-0.2622,-0.2697,-0.2803,-0.2844,-0.2853,-0.284,-0.2792,-0.2771,-0.2692,-0.2632,-0.2519,-0.2467,-0.2279,-0.2294,-0.2191,-0.2165,-0.2069,-0.2056,-0.2369,-0.2385,-0.2245,-0.2246,-0.2248,-0.2249,0,-0.2377,-0.2453,-0.2529,-0.2632,-0.2692,-0.2738,-0.2853,-0.283,-0.2837,-0.2761,-0.2739,-0.2643,-0.2484,-0.2401,-0.2246,-0.2183,-0.2046,-0.1972,-0.1876,-0.1838,-0.2008,-0.2025,-0.1776,-0.1771,-0.1767,-0.1763,-0.176,0,-0.237,-0.2397,-0.2495,-0.2536,-0.261,-0.2703,-0.2734,-0.2805,-0.2771,-0.2704,-0.2632,-0.249,-0.2326,-0.2073,-0.193,-0.176,-0.1869,-0.1552,-0.1596,-0.1945,-0.1946,-0.197,-0.1993,-0.1388,-0.1382,-0.1377,-0.1373,0,-0.2323,-0.2349,-0.2368,-0.2408,-0.2486,-0.2556,-0.2626,-0.2592,-0.261,-0.2534,-0.2384,-0.2267,-0.2031,-0.1763,-0.1567,-0.1465,-0.158,-0.1448,-0.1772,-0.1542,-0.1568,-0.1575,-0.161,-0.133,-0.1335,-0.1338,-0.134,-0.1342,-0.2267,-0.2253,-0.2249,-0.2292,-0.2341,-0.2355,-0.2327,-0.2333,-0.2248,-0.2067,-0.2118,-0.1865,-0.178,-0.1359,-0.123,-0.1115,-0.124,-0.1196,-0.1214,-0.1237,-0.1231,-0.1249,-0.0952,-0.0953,-0.0955,-0.0957,-0.0958,0,-0.2176,-0.2179,-0.2152,-0.2153,-0.2063,-0.2218,-0.2188,-0.2058,-0.1867,-0.1788,-0.165,-0.136,-0.1155,-0.1067,-0.0827,-0.0774,-0.0803,-0.0735,-0.0802,-0.0842,-0.0879,-0.086,-0.0479,-0.0478,-0.0477,-0.0476,0,0,-0.2133,-0.2061,-0.2008,-0.1858,-0.1878,-0.179,-0.1743,-0.1534,-0.1412,-0.1172,-0.1049,-0.108,-0.1055,-0.0791,-0.0715,-0.0572,-0.0712,-0.0522,-0.0903,-0.1025,-0.1061,-0.113,-0.1143,0,0,0,0,0]},{"header":{"parameterUnit":"m.s-1","parameterCategory":2,"la1":30.2991,"la2":30.254,"lo1":-89.0895,"lo2":-89.0444,"dy":0.0017,"dx":0.0017,"nx":28,"ny":28,"refTime":"2026-02-04T09:00:00:Z","depth":"2","parameterNumber":3,"parameterNumberName":"V-component_of_CURRENTS"},"data":[0,0,0,0,0,0,0,0,0,0,0,0,0,0,0,0,0,0,0,0,0,0,0,0,0,0,0,0,0,0,0,0,0,0,0,0,0,0,0,0,0,0,0,0,0,0,0,0,0,0,0,0,0,0,0,0,0,0,-0.028,-0.0278,0,-0.0194,-0.0193,-0.0192,-0.0079,-0.0077,-0.0074,-0.0072,0.0184,0.0189,0.0193,0,0,0,0,0,0,0,0,0,0,0,0,0,-0.0344,-0.0343,-0.028,-0.0278,-0.0277,-0.0194,-0.0193,-0.0192,-0.0079,-0.0077,-0.0074,-0.0071,0.0182,0.0188,0.0194,0,0,0,0,0,0,0,0,0,0,0,0,0,-0.0296,-0.0343,-0.028,-0.0208,-0.02,-0.0194,-0.0193,-0.0192,-0.008,-0.0077,-0.0073,-0.007,0.0181,0.0187,0.0194,0.0172,0,0,0.0216,0.0219,0,0,0,0,0,0,0,0,-0.0299,-0.0295,-0.022,-0.0213,-0.0204,-0.014,-0.0121,-0.0061,-0.0081,-0.013,-0.0072,-0.0068,0.0091,0.0106,0.0107,0.0184,0.0195,0.0217,0.0221,0.0224,0.0226,0,0,0,0,0,0,0,-0.0303,-0.0298,-0.025,-0.0218,-0.0209,-0.0178,-0.0169,-0.011,-0.0039,-0.0125,-0.0116,-0.0101,0.0097,0.0099,0.0114,0.0199,0.0217,0.0223,0.0227,0.023,0.0523,0.0526,0,0,0,0,0,0,-0.031,-0.0301,-0.0252,-0.0247,-0.024,-0.018,-0.0169,-0.0167,-0.0043,-0.0021,-0.0104,-0.0096,0.0086,0.0106,0.0124,0.0285,0.0224,0.0231,0.0235,0.0519,0.0524,0.0527,0,0,0,0,0,0,-0.0312,-0.0307,-0.0256,-0.0268,-0.0258,-0.0182,-0.0181,-0.0167,-0.0138,-0.0028,-0.0003,-0.0085,0.0089,0.0114,0.0202,0.0289,0.0234,0.0241,0.0515,0.0521,0.0526,0.0491,0,0,0,0,0,0,-0.0314,-0.0309,-0.0316,-0.0269,-0.0258,-0.0233,-0.0184,-0.0168,-0.0134,-0.0122,-0.0004,0.0021,0.0094,0.019,0.0209,0.0298,0.0246,0.0511,0.0518,0.0524,0.0488,0.0495,0.0501,0,0,0,0,0,-0.0317,-0.0328,-0.0317,-0.0311,-0.0269,-0.0232,-0.0224,-0.0161,-0.0136,-0.0124,-0.0042,0.0019,0.0249,0.0195,0.0217,0.0311,0.0508,0.0516,0.0523,0.0485,0.0494,0.05,0,0,0,0,0,0,-0.0352,-0.0317,-0.0303,-0.0301,-0.0264,-0.0211,-0.0199,-0.0166,-0.0102,-0.0081,0.0016,0.0047,0.018,0.0234,0.0174,0.0424,0.0408,0.042,0.0372,0.038,0.0386,0.0369,0.0252,0,0,0,0,0,-0.0371,-0.0372,-0.0327,-0.0326,-0.0312,-0.0263,-0.0244,-0.02,-0.0137,-0.0106,-0.0016,0.01,0.0221,0.0284,0.0388,0.0476,0.0482,0.0571,0.0577,0.0581,0.0588,0.0637,0.0645,0.0553,0.0553,0.0553,0,0,-0.0384,-0.0365,-0.0365,-0.0334,-0.0306,-0.0284,-0.0243,-0.0208,-0.0163,-0.0088,0.0006,0.0113,0.0248,0.038,0.0447,0.0437,0.0608,0.0591,0.0593,0.0598,0.0645,0.0654,0.0661,0.0559,0.0558,0.0557,0,0,-0.0408,-0.0397,-0.0405,-0.0378,-0.0333,-0.0297,-0.0287,-0.0221,-0.0162,-0.0084,0.0022,0.0158,0.0305,0.0437,0.0519,0.0613,0.0637,0.068,0.0695,0.0742,0.0748,0.0754,0.0733,0.0738,0.0683,0.0683,0.0683,0,-0.0426,-0.0427,-0.0399,-0.0391,-0.0355,-0.0305,-0.0282,-0.0233,-0.0135,-0.0067,-0.0044,0.0237,0.0342,0.0536,0.0591,0.063,0.0625,0.0643,0.0742,0.0749,0.0755,0.0733,0.0738,0.0682,0.0682,0.0682,0.0682,0,-0.0454,-0.0445,-0.0444,-0.0416,-0.0374,-0.035,-0.027,-0.0214,-0.0138,-0.0058,0.0139,0.0278,0.0457,0.0537,0.0591,0.0741,0.0709,0.0732,0.07,0.076,0.0736,0.0741,0.0681,0.0681,0.0682,0.0682,0,0,-0.0508,-0.0473,-0.0469,-0.0448,-0.0378,-0.0345,-0.0267,-0.0161,-0.01,0.0042,0.0159,0.04,0.0492,0.0592,0.0708,0.0763,0.0797,0.0763,0.0766,0.0702,0.0842,0.0749,0.0745,0.0821,0.0823,0.0825,0.0789,0,-0.0533,-0.054,-0.0484,-0.0447,-0.0438,-0.0339,-0.0265,-0.0154,-0.0055,0.0059,0.0257,0.0418,0.051,0.0612,0.0687,0.0786,0.0818,0.0802,0.0831,0.0832,0.0708,0.0752,0.0749,0.0712,0.0794,0.0795,0.0796,0,-0.0573,-0.0569,-0.0552,-0.0457,-0.0435,-0.0381,-0.0247,-0.0165,0.0005,0.0092,0.0276,0.0406,0.0598,0.0626,0.0796,0.0774,0.0808,0.085,0.0849,0.0782,0.0751,0.0682,0.0719,0.0805,0.0804,0.0803,0.0803,0,-0.0644,-0.0597,-0.0581,-0.0557,-0.0457,-0.0383,-0.0294,-0.0142,-0.0057,0.0127,0.0189,0.0418,0.0535,0.064,0.0756,0.0775,0.0854,0.089,0.0829,0.082,0.0837,0.0826,0.0964,0.0964,0.0964,0.0964,0.0965,0,-0.0689,-0.0677,-0.0614,-0.0605,-0.0553,-0.0424,-0.0317,-0.0223,-0.006,0.0025,0.022,0.0306,0.054,0.0626,0.0718,0.0775,0.0829,0.083,0.082,0.0822,0.081,0.0922,0.0918,0.0963,0.0963,0.0964,0.0964,0,-0.077,-0.0738,-0.073,-0.0632,-0.0591,-0.0544,-0.0358,-0.0287,-0.0133,-0.0032,0.0035,0.0231,0.0345,0.0505,0.065,0.0709,0.0781,0.0775,0.0724,0.0709,0.0717,0.0713,0.0721,0.0718,0.0715,0.0713,0.0711,0,-0.0819,-0.0827,-0.0779,-0.0765,-0.0712,-0.061,-0.0534,-0.035,-0.0288,-0.0095,-0.0076,0.0086,0.0188,0.0348,0.0493,0.0606,0.0662,0.0629,0.0692,0.0711,0.07,0.07,0.0699,0.0689,0.0687,0.0686,0.0684,0,-0.0903,-0.0887,-0.0877,-0.087,-0.0812,-0.0748,-0.0632,-0.0612,-0.0411,-0.0328,-0.0228,-0.0116,0.0082,0.0249,0.0393,0.0461,0.0623,0.0594,0.0664,0.0735,0.0674,0.0665,0.0667,0.067,0.0672,0.0673,0.0673,0.0674,-0.0961,-0.0988,-0.0971,-0.0954,-0.092,-0.0895,-0.0843,-0.0759,-0.0684,-0.0534,-0.0407,-0.0196,0.0003,0.0237,0.0336,0.0456,0.0482,0.0543,0.0552,0.0562,0.0549,0.0486,0.044,0.044,0.044,0.044,0.044,0,-0.102,-0.1031,-0.1035,-0.1031,-0.1026,-0.0962,-0.0909,-0.0848,-0.0811,-0.0625,-0.0476,-0.0234,-0.0035,0.0182,0.0366,0.0442,0.0495,0.0444,0.0534,0.0546,0.0557,0.0549,0.0437,0.0438,0.0438,0.0438,0,0,-0.1047,-0.108,-0.1081,-0.1118,-0.1099,-0.107,-0.1046,-0.0976,-0.0834,-0.0664,-0.0453,-0.0233,0.0036,0.0143,0.0263,0.0378,0.0436,0.0372,0.0366,0.047,0.048,0.0603,0.06,0,0,0,0,0]}],[{"header":{"parameterUnit":"m.s-1","parameterCategory":2,"la1":30.2991,"la2":30.254,"lo1":-89.0895,"lo2":-89.0444,"dy":0.0017,"dx":0.0017,"nx":28,"ny":28,"refTime":"2026-02-04T09:00:00:Z","depth":"4","parameterNumber":2,"parameterNumberName":"U-component_of_CURRENTS"},"data":[0,0,0,0,0,0,0,0,0,0,0,0,0,0,0,0,0,0,0,0,0,0,0,0,0,0,0,0,0,0,0,0,0,0,0,0,0,0,0,0,0,0,0,0,0,0,0,0,0,0,0,0,0,0,0,0,0,0,-0.1136,-0.1137,0,-0.1183,-0.1183,-0.1184,-0.1189,-0.1189,-0.1188,-0.1188,-0.1239,-0.1241,-0.1243,0,0,0,0,0,0,0,0,0,0,0,0,0,-0.1076,-0.1077,-0.1136,-0.1137,-0.1137,-0.1183,-0.1183,-0.1184,-0.1189,-0.1189,-0.1188,-0.1188,-0.1239,-0.1241,-0.1243,0,0,0,0,0,0,0,0,0,0,0,0,0,-0.111,-0.1077,-0.1136,-0.1145,-0.1147,-0.1183,-0.1183,-0.1184,-0.119,-0.1189,-0.1188,-0.1187,-0.1238,-0.124,-0.1243,-0.1274,0,0,-0.1251,-0.1253,0,0,0,0,0,0,0,0,-0.1108,-0.1113,-0.1143,-0.1145,-0.1146,-0.1179,-0.1181,-0.1215,-0.119,-0.1173,-0.1188,-0.1187,-0.122,-0.1224,-0.1235,-0.1277,-0.1279,-0.1252,-0.1253,-0.1254,-0.1255,0,0,0,0,0,0,0,-0.1106,-0.1111,-0.1155,-0.1144,-0.1146,-0.1155,-0.1159,-0.1187,-0.12,-0.1175,-0.1175,-0.118,-0.1221,-0.1232,-0.1236,-0.128,-0.1252,-0.1254,-0.1256,-0.1257,-0.1353,-0.1354,0,0,0,0,0,0,-0.11,-0.1108,-0.1153,-0.1156,-0.1125,-0.1157,-0.1161,-0.117,-0.12,-0.1204,-0.1181,-0.1181,-0.1228,-0.1233,-0.1238,-0.1292,-0.1254,-0.1257,-0.1259,-0.1352,-0.1353,-0.1354,0,0,0,0,0,0,-0.1098,-0.1103,-0.1151,-0.1133,-0.114,-0.1159,-0.1168,-0.1171,-0.1198,-0.1205,-0.1208,-0.1206,-0.1227,-0.1234,-0.1268,-0.1293,-0.1258,-0.1261,-0.1351,-0.1352,-0.1353,-0.1391,0,0,0,0,0,0,-0.1096,-0.1103,-0.1116,-0.1133,-0.114,-0.1176,-0.1169,-0.1172,-0.1201,-0.1201,-0.1228,-0.1231,-0.1227,-0.1264,-0.1271,-0.1297,-0.1263,-0.135,-0.1351,-0.1353,-0.1389,-0.1394,-0.1398,0,0,0,0,0,-0.1094,-0.1104,-0.1116,-0.1122,-0.1155,-0.1177,-0.1182,-0.1193,-0.1203,-0.1215,-0.1232,-0.1231,-0.128,-0.1267,-0.1275,-0.1302,-0.1349,-0.1351,-0.1353,-0.1387,-0.1393,-0.1398,0,0,0,0,0,0,-0.1084,-0.1106,-0.112,-0.1137,-0.116,-0.1177,-0.1194,-0.1209,-0.1235,-0.1242,-0.1248,-0.1253,-0.1283,-0.1293,-0.128,-0.1333,-0.1313,-0.1316,-0.1336,-0.1341,-0.1346,-0.1346,-0.1265,0,0,0,0,0,-0.109,-0.1106,-0.1129,-0.1147,-0.1161,-0.1187,-0.1203,-0.1214,-0.1234,-0.1246,-0.1265,-0.1285,-0.1298,-0.132,-0.1327,-0.1374,-0.1362,-0.1394,-0.1398,-0.1402,-0.1407,-0.1411,-0.1417,-0.1361,-0.1361,-0.1361,0,0,-0.1094,-0.1107,-0.1119,-0.1147,-0.1169,-0.1187,-0.1195,-0.1224,-0.1243,-0.1249,-0.1288,-0.1299,-0.1309,-0.1341,-0.1359,-0.1358,-0.141,-0.1405,-0.1408,-0.1411,-0.1414,-0.1419,-0.1424,-0.1362,-0.1362,-0.1362,0,0,-0.1097,-0.1123,-0.1135,-0.1152,-0.1185,-0.1202,-0.1216,-0.125,-0.127,-0.1311,-0.1309,-0.1336,-0.1376,-0.1381,-0.1389,-0.143,-0.1422,-0.1443,-0.1484,-0.1489,-0.1493,-0.1497,-0.1478,-0.148,-0.146,-0.146,-0.146,0,-0.1103,-0.1116,-0.1143,-0.1154,-0.117,-0.1211,-0.1227,-0.1256,-0.1296,-0.1319,-0.1325,-0.1377,-0.1388,-0.1419,-0.1436,-0.144,-0.1439,-0.1463,-0.1495,-0.1498,-0.1501,-0.1481,-0.1483,-0.1462,-0.1462,-0.1461,-0.1461,0,-0.1103,-0.1122,-0.1132,-0.116,-0.1184,-0.1205,-0.1244,-0.128,-0.1318,-0.1346,-0.1393,-0.1412,-0.1444,-0.1456,-0.1466,-0.1504,-0.1492,-0.1487,-0.1479,-0.1509,-0.1486,-0.1487,-0.1465,-0.1464,-0.1464,-0.1463,0,0,-0.1089,-0.1126,-0.1132,-0.1144,-0.1188,-0.1206,-0.125,-0.1297,-0.1328,-0.1381,-0.1417,-0.146,-0.1488,-0.1499,-0.1516,-0.1538,-0.156,-0.1542,-0.1541,-0.152,-0.1564,-0.1458,-0.1449,-0.1571,-0.1572,-0.1573,-0.1533,0,-0.1084,-0.1106,-0.1126,-0.1152,-0.1168,-0.1212,-0.1248,-0.1298,-0.1347,-0.1393,-0.1437,-0.1473,-0.15,-0.1524,-0.1554,-0.155,-0.1567,-0.157,-0.154,-0.1539,-0.1439,-0.1448,-0.1575,-0.1534,-0.1534,-0.1534,-0.1534,0,-0.1068,-0.1087,-0.1116,-0.1151,-0.1164,-0.1189,-0.1253,-0.1288,-0.1361,-0.1399,-0.1457,-0.149,-0.1539,-0.155,-0.1576,-0.1584,-0.1586,-0.1583,-0.1581,-0.1471,-0.1435,-0.1501,-0.1536,-0.1535,-0.1535,-0.1535,-0.1535,0,-0.1037,-0.1072,-0.1099,-0.111,-0.1164,-0.119,-0.1226,-0.1297,-0.1329,-0.1407,-0.1435,-0.1498,-0.1529,-0.1548,-0.1568,-0.1578,-0.1577,-0.1576,-0.1478,-0.1469,-0.156,-0.1557,-0.1591,-0.1591,-0.1591,-0.1591,-0.1591,0,-0.1006,-0.1022,-0.109,-0.1099,-0.1125,-0.1178,-0.1219,-0.126,-0.1328,-0.136,-0.1441,-0.147,-0.1538,-0.1555,-0.1562,-0.1514,-0.1569,-0.1477,-0.1454,-0.1575,-0.1574,-0.156,-0.1556,-0.1589,-0.159,-0.159,-0.159,0,-0.0951,-0.1002,-0.1022,-0.1088,-0.1108,-0.1128,-0.1193,-0.122,-0.1296,-0.1335,-0.136,-0.1453,-0.147,-0.1503,-0.1521,-0.1487,-0.1456,-0.143,-0.1543,-0.1528,-0.1345,-0.1344,-0.1297,-0.1293,-0.1289,-0.1286,-0.1284,0,-0.0919,-0.0933,-0.0999,-0.101,-0.1036,-0.1081,-0.1108,-0.119,-0.1214,-0.1312,-0.1314,-0.1376,-0.1424,-0.1348,-0.1406,-0.1372,-0.1373,-0.134,-0.136,-0.1333,-0.1316,-0.1321,-0.1325,-0.1279,-0.1278,-0.1277,-0.1276,0,-0.0848,-0.0889,-0.0909,-0.0937,-0.0965,-0.0984,-0.1028,-0.1038,-0.1134,-0.1215,-0.1233,-0.125,-0.1266,-0.1283,-0.1266,-0.1255,-0.1346,-0.1305,-0.1312,-0.133,-0.1311,-0.1298,-0.1306,-0.1264,-0.1266,-0.1267,-0.1268,0,-0.0793,-0.0786,-0.083,-0.084,-0.0871,-0.0868,-0.091,-0.094,-0.0978,-0.1092,-0.1101,-0.117,-0.1254,-0.1221,-0.121,-0.1179,-0.1167,-0.1131,-0.1148,-0.1161,-0.1138,-0.1095,-0.0955,0,0,0,0,0,-0.0729,-0.0716,-0.0723,-0.0724,-0.0754,-0.0768,-0.0842,-0.0896,-0.0999,-0.0972,-0.1031,-0.1043,-0.1048,-0.1095,-0.1034,-0.1142,-0.1164,-0.1066,-0.113,-0.1199,-0.1212,-0.1199,0,0,0,0,0,0,-0.0684,-0.069,-0.069,-0.0632,-0.0609,-0.0624,-0.067,-0.0743,-0.0742,-0.0857,-0.0866,-0.0952,-0.0972,-0.1045,-0.0999,-0.1008,-0.1022,-0.1113,-0.111,-0.1191,-0.1204,-0.1214,-0.1206,0,0,0,0,0]},{"header":{"parameterUnit":"m.s-1","parameterCategory":2,"la1":30.2991,"la2":30.254,"lo1":-89.0895,"lo2":-89.0444,"dy":0.0017,"dx":0.0017,"nx":28,"ny":28,"refTime":"2026-02-04T09:00:00:Z","depth":"4","parameterNumber":3,"parameterNumberName":"V-component_of_CURRENTS"},"data":[0,0,0,0,0,0,0,0,0,0,0,0,0,0,0,0,0,0,0,0,0,0,0,0,0,0,0,0,0,0,0,0,0,0,0,0,0,0,0,0,0,0,0,0,0,0,0,0,0,0,0,0,0,0,0,0,0,0,-0.0259,-0.0259,0,-0.0265,-0.0265,-0.0266,-0.0261,-0.0261,-0.026,-0.026,-0.0222,-0.0221,-0.022,0,0,0,0,0,0,0,0,0,0,0,0,0,-0.0242,-0.0243,-0.0259,-0.0259,-0.0259,-0.0265,-0.0265,-0.0266,-0.0261,-0.0261,-0.026,-0.026,-0.0222,-0.0221,-0.022,0,0,0,0,0,0,0,0,0,0,0,0,0,-0.025,-0.0243,-0.0259,-0.0257,-0.0256,-0.0265,-0.0265,-0.0266,-0.0261,-0.0261,-0.026,-0.026,-0.0222,-0.0221,-0.022,-0.0223,0,0,-0.0217,-0.0217,0,0,0,0,0,0,0,0,-0.025,-0.0251,-0.0257,-0.0257,-0.0256,-0.0261,-0.0245,-0.0249,-0.0261,-0.0261,-0.026,-0.0259,-0.023,-0.0229,-0.0233,-0.0222,-0.022,-0.0217,-0.0216,-0.0216,-0.0216,0,0,0,0,0,0,0,-0.0249,-0.0251,-0.0263,-0.0257,-0.0257,-0.0255,-0.0255,-0.0246,-0.0248,-0.0261,-0.026,-0.0259,-0.023,-0.0234,-0.0232,-0.0219,-0.0217,-0.0216,-0.0215,-0.0215,-0.022,-0.0221,0,0,0,0,0,0,-0.0247,-0.0251,-0.0263,-0.0263,-0.0251,-0.0255,-0.0256,-0.0261,-0.0249,-0.0247,-0.0259,-0.0258,-0.0236,-0.0233,-0.0231,-0.0247,-0.0216,-0.0215,-0.0214,-0.022,-0.0221,-0.0221,0,0,0,0,0,0,-0.0247,-0.0248,-0.0262,-0.0255,-0.0257,-0.0256,-0.0261,-0.0261,-0.0266,-0.0248,-0.0245,-0.0264,-0.0236,-0.0232,-0.0233,-0.0245,-0.0214,-0.0213,-0.0219,-0.022,-0.0221,-0.027,0,0,0,0,0,0,-0.0246,-0.0248,-0.0255,-0.0255,-0.0257,-0.0275,-0.0262,-0.0262,-0.0265,-0.0265,-0.0251,-0.0247,-0.0235,-0.0235,-0.0232,-0.0243,-0.0213,-0.0218,-0.0219,-0.0221,-0.0268,-0.0273,-0.0278,0,0,0,0,0,-0.0246,-0.0262,-0.0255,-0.0257,-0.0265,-0.0276,-0.0277,-0.0275,-0.0266,-0.0276,-0.0268,-0.0248,-0.0242,-0.0235,-0.0231,-0.0242,-0.0217,-0.0219,-0.022,-0.0265,-0.0272,-0.0278,0,0,0,0,0,0,-0.0263,-0.0263,-0.0256,-0.0272,-0.0274,-0.0275,-0.0285,-0.0278,-0.028,-0.0279,-0.0258,-0.0255,-0.0265,-0.0245,-0.0238,-0.0248,-0.0226,-0.0227,-0.0261,-0.0267,-0.0272,-0.0272,-0.0212,0,0,0,0,0,-0.0268,-0.028,-0.0275,-0.029,-0.029,-0.0286,-0.029,-0.0288,-0.0288,-0.0288,-0.0277,-0.0268,-0.027,-0.0261,-0.0263,-0.0261,-0.0219,-0.0266,-0.0271,-0.0275,-0.0273,-0.0231,-0.0232,-0.0227,-0.0227,-0.0227,0,0,-0.028,-0.0281,-0.0288,-0.0294,-0.0295,-0.031,-0.0289,-0.03,-0.0312,-0.0283,-0.0296,-0.029,-0.0277,-0.0287,-0.0288,-0.0269,-0.0252,-0.0277,-0.0281,-0.0277,-0.0233,-0.0233,-0.0233,-0.0228,-0.0228,-0.0228,0,0,-0.0314,-0.0309,-0.0329,-0.0333,-0.0335,-0.0333,-0.0336,-0.0336,-0.0334,-0.0345,-0.0332,-0.0335,-0.0327,-0.0324,-0.0321,-0.0351,-0.0289,-0.0344,-0.0357,-0.0317,-0.0317,-0.0316,-0.0248,-0.024,-0.0336,-0.0336,-0.0336,0,-0.0327,-0.0349,-0.0338,-0.0357,-0.0365,-0.0345,-0.0368,-0.0366,-0.0367,-0.0362,-0.0357,-0.0355,-0.035,-0.0353,-0.0368,-0.0363,-0.0311,-0.0336,-0.0322,-0.0321,-0.0319,-0.0249,-0.0241,-0.0338,-0.0338,-0.0338,-0.0338,0,-0.0372,-0.039,-0.0403,-0.0419,-0.0427,-0.0444,-0.0435,-0.0436,-0.0428,-0.0419,-0.0421,-0.0415,-0.0406,-0.0409,-0.0399,-0.0387,-0.0344,-0.0342,-0.0305,-0.0322,-0.0248,-0.0238,-0.0342,-0.0341,-0.034,-0.034,0,0,-0.0397,-0.0429,-0.0433,-0.0448,-0.0459,-0.0469,-0.0483,-0.0483,-0.0485,-0.0475,-0.0474,-0.0483,-0.046,-0.0454,-0.0436,-0.0401,-0.0352,-0.0361,-0.0358,-0.0289,-0.0225,-0.0224,-0.0212,-0.0335,-0.0334,-0.0333,-0.0172,0,-0.0433,-0.0482,-0.0488,-0.0531,-0.0552,-0.0539,-0.0555,-0.055,-0.0536,-0.0526,-0.0499,-0.0501,-0.048,-0.0478,-0.044,-0.0388,-0.0329,-0.0393,-0.0223,-0.0217,-0.0211,-0.0203,-0.033,-0.0164,-0.0162,-0.016,-0.0159,0,-0.0472,-0.0498,-0.0551,-0.0582,-0.059,-0.0614,-0.0619,-0.0629,-0.0603,-0.059,-0.0563,-0.0536,-0.05,-0.0481,-0.0364,-0.0398,-0.031,-0.0255,-0.0248,-0.0223,-0.0199,-0.0147,-0.014,-0.0141,-0.0143,-0.0144,-0.0145,0,-0.0491,-0.0539,-0.0584,-0.0595,-0.0628,-0.0646,-0.0658,-0.0649,-0.0653,-0.0624,-0.0614,-0.0559,-0.0527,-0.0432,-0.0317,-0.0333,-0.0164,-0.0176,-0.0078,-0.0075,-0.0101,-0.0104,-0.0069,-0.0069,-0.007,-0.007,-0.0071,0,-0.052,-0.0554,-0.0598,-0.0619,-0.0667,-0.0677,-0.0711,-0.0706,-0.0699,-0.0695,-0.0647,-0.0612,-0.0511,-0.0404,-0.0303,-0.0153,-0.0144,-0.0071,-0.0039,-0.0124,-0.0131,-0.0092,-0.0097,-0.0064,-0.0065,-0.0067,-0.0068,0,-0.0533,-0.0565,-0.0615,-0.0661,-0.0681,-0.0711,-0.0751,-0.0764,-0.0752,-0.0741,-0.0733,-0.0637,-0.0495,-0.0367,-0.0196,-0.0133,-0.0002,0.0063,-0.0006,0.0018,0.0063,0.0054,0.017,0.0171,0.0172,0.0173,0.0174,0,-0.0546,-0.0575,-0.0643,-0.0677,-0.0703,-0.075,-0.0782,-0.0792,-0.0795,-0.0744,-0.0729,-0.0597,-0.0515,-0.0251,-0.0133,0.0073,0.0096,0.0159,0.0075,0.0065,0.0086,0.0074,0.0064,0.0175,0.0176,0.0176,0.0176,0,-0.0558,-0.0587,-0.0624,-0.0695,-0.0743,-0.0792,-0.0828,-0.0833,-0.0825,-0.0816,-0.0702,-0.0578,-0.04,-0.0227,-0.0054,0.0083,0.0092,0.017,0.0168,0.0089,0.0073,0.009,0.0078,0.018,0.0179,0.0179,0.0179,0,-0.0563,-0.0591,-0.0643,-0.0699,-0.0767,-0.0809,-0.0831,-0.0817,-0.0815,-0.0756,-0.0705,-0.0529,-0.0427,-0.0215,-0.0062,0.007,0.0081,0.0082,0.0084,0.0081,-0.0016,-0.0054,0.0051,0,0,0,0,0,-0.0556,-0.0582,-0.064,-0.0703,-0.0772,-0.0806,-0.085,-0.0859,-0.0848,-0.0767,-0.0737,-0.0568,-0.0338,-0.0229,-0.0091,-0.0063,0.0089,0.0096,0.0086,0.0201,0.0196,0.0094,0,0,0,0,0,0,-0.055,-0.0599,-0.0628,-0.0694,-0.0736,-0.0803,-0.0832,-0.0827,-0.0775,-0.0742,-0.06,-0.0554,-0.031,-0.0396,-0.0084,-0.0047,-0.0045,0.0206,0.0207,0.0203,0.0199,0.0196,0.0089,0,0,0,0,0]}]]